Dewpoint
29 23 21 20 24 23 24 24 26 27 31 30 32 33 35 44 50 50 56 58 58 59 60 61 63 64 65 67 69 71 71 73 72 70 69 68 65 66 66 66 70 73 74 75
26 23 21 20 18 21 22 22 23 27 28 27 30 30 34 40 49 51 54 57 58 58 59 61 63 63 63 67 69 71 72 74 74 71 71 68 67 65 66 67 71 73 74 76
22 21 21 19 22 21 21 21 22 24 27 26 27 29 31 31 39 48 51 55 57 58 58 60 62 62 63 66 69 71 73 73 74 73 71 70 69 68 67 68 69 72 74 75
21 22 22 21 21 20 19 19 19 20 23 25 28 26 33 33 37 42 47 52 55 57 59 60 61 62 62 65 68 71 73 74 74 75 72 74 68 67 67 69 68 70 74 74
22 21 21 21 22 21 18 13 16 18 19 23 26 25 29 32 33 35 42 47 53 56 58 60 61 61 62 65 66 69 73 76 76 75 75 71 72 68 68 67 74 76 75 75
20 19 20 22 22 22 20 16 15 18 16 18 25 25 27 29 35 35 42 48 53 55 57 60 61 61 62 64 66 68 74 77 76 76 75 76 76 73 69 71 68 69 70 71
21 19 21 21 22 23 21 19 16 13 13 15 23 23 28 29 31 34 35 40 52 55 57 58 61 62 62 64 66 68 72 75 75 74 75 75 75 76 75 73 70 72 67 67
18 17 19 22 22 22 22 18 11 17 9 11 22 22 25 29 31 31 34 34 46 54 56 57 60 62 64 64 67 69 71 74 74 74 76 77 77 72 72 74 70 69 67 68
19 19 17 20 21 22 23 20 14 10 15 12 12 20 23 27 29 30 31 33 37 51 55 57 58 61 64 65 68 70 72 74 74 72 76 77 77 76 72 76 75 71 74 69
24 22 19 18 20 20 20 21 14 12 18 17 11 18 19 27 30 31 32 32 36 45 53 55 58 59 62 64 66 69 71 73 74 74 74 74 75 76 76 76 76 76 74 74
27 24 22 21 20 19 18 19 18 14 13 12 12 11 22 27 31 31 32 34 35 42 47 51 54 58 59 62 65 67 69 71 72 73 74 74 74 74 75 75 76 77 75 76
29 25 24 20 20 19 19 20 20 15 23 16 15 10 15 21 24 31 31 34 35 39 43 45 48 53 57 60 63 64 66 67 70 72 75 75 75 75 74 76 76 77 77 76
32 25 23 23 21 23 20 20 20 18 19 26 16 14 21 27 29 33 33 34 38 41 46 48 47 49 54 58 62 62 64 65 66 71 71 72 73 74 75 76 76 77 77 77
34 28 27 20 25 24 23 21 21 19 18 19 19 19 22 22 26 29 28 31 32 41 44 45 48 49 53 58 64 66 62 63 64 66 68 72 74 74 74 76 76 76 77 77
30 30 30 28 26 25 22 20 21 22 23 22 20 22 24 26 27 29 30 32 32 35 39 43 49 54 59 60 64 67 65 65 65 68 67 72 74 76 76 76 77 77 77 77
27 30 30 28 26 24 23 24 23 22 22 23 23 23 25 27 30 31 31 33 33 34 34 34 40 52 55 59 62 62 67 65 67 70 70 72 75 76 76 77 77 77 77 77
28 26 29 26 25 24 24 25 24 25 25 25 25 28 29 29 30 31 31 31 32 35 37 39 40 44 50 51 59 62 65 66 69 71 72 74 75 76 76 76 77 77 77 77
29 29 26 23 27 24 25 26 26 25 26 26 27 29 30 31 32 33 33 33 34 34 36 40 35 36 42 46 44 59 62 70 70 72 73 74 74 75 76 77 76 77 77 76
26 28 22 21 22 24 23 24 25 27 27 27 29 31 29 31 29 32 32 32 36 38 38 38 37 39 50 48 51 56 62 66 68 72 73 74 74 74 75 76 76 77 76 76
23 30 24 21 20 20 24 23 35 33 31 33 42 42 44 47 37 31 34 31 33 35 38 40 40 43 45 52 52 57 60 64 68 71 71 74 75 75 75 76 77 77 76 76
18 25 23 20 19 20 23 33 43 33 43 49 48 50 52 52 50 55 57 53 51 49 48 49 49 49 53 57 57 59 62 63 67 69 69 72 75 76 76 77 77 76 76 74
20 19 18 20 20 18 21 24 31 45 50 49 50 53 55 57 59 59 60 60 55 53 54 58 54 54 60 64 64 63 69 67 69 70 70 73 75 72 71 77 77 76 76 76
20 20 20 22 20 29 28 31 36 38 42 49 48 48 53 55 58 60 61 59 58 59 61 62 58 63 66 68 68 68 70 70 70 71 72 72 73 73 75 76 76 73 76 72
28 29 26 26 26 30 32 32 34 38 41 42 47 47 52 54 58 61 61 60 61 61 62 63 65 64 67 71 71 72 72 72 72 72 73 73 73 73 74 71 72 71 70 71
27 30 31 32 33 31 31 34 36 38 43 47 47 51 55 57 59 61 61 61 62 62 62 63 64 65 66 67 67 66 67 68 71 72 71 72 71 73 72 74 71 70 73 68
31 32 29 28 32 33 35 36 43 44 45 47 49 52 57 60 60 61 62 63 64 65 66 66 67 67 65 66 67 69 69 69 67 66 62 62 62 64 67 68 71 55 57 53
Lifted_Index
9 8 7 8 8 8 7 5 4 3 3 2 1 0 -0 -1 -3 -4 -4 -4 -4 -4 -3 -2 -2 -2 -2 -3 -3 -4 -4 -4 -4 -4 -3 -2 -2 -2 -2 -2 -3 -4 -5 -5
8 7 8 9 9 8 7 6 5 3 3 3 2 1 0 -1 -2 -3 -4 -4 -4 -3 -3 -2 -2 -2 -2 -3 -3 -4 -4 -4 -4 -4 -3 -3 -2 -2 -2 -3 -3 -4 -5 -6
7 8 9 9 9 8 7 6 5 4 3 3 2 1 1 0 -1 -2 -3 -4 -4 -3 -3 -2 -2 -2 -2 -3 -3 -4 -5 -5 -5 -4 -3 -3 -3 -3 -3 -3 -4 -4 -5 -6
8 8 9 8 8 8 7 6 6 5 4 3 2 2 1 1 0 -1 -2 -4 -4 -4 -3 -3 -2 -2 -2 -3 -3 -4 -5 -5 -5 -5 -4 -4 -3 -3 -3 -3 -4 -4 -5 -5
9 9 9 8 7 8 7 7 7 6 4 3 3 3 2 1 1 0 -1 -3 -4 -4 -3 -3 -2 -2 -2 -2 -3 -4 -5 -5 -5 -5 -5 -4 -4 -3 -4 -4 -4 -4 -5 -5
9 9 9 8 8 9 9 8 6 5 4 3 4 4 3 2 2 1 -1 -2 -3 -4 -3 -3 -3 -2 -1 -2 -2 -3 -4 -5 -5 -5 -5 -5 -5 -4 -4 -4 -4 -4 -5 -5
9 9 9 9 9 9 9 8 5 3 2 3 4 4 4 3 3 2 1 -1 -3 -3 -3 -3 -3 -2 -2 -2 -3 -3 -4 -5 -5 -5 -5 -5 -5 -5 -5 -5 -5 -5 -4 -4
6 7 9 10 9 9 9 8 5 2 2 3 4 4 5 4 3 3 2 0 -1 -3 -3 -3 -3 -3 -3 -3 -3 -4 -5 -5 -5 -5 -5 -6 -6 -5 -5 -5 -5 -5 -5 -4
6 7 8 9 9 9 8 7 5 4 3 3 4 5 5 5 4 3 3 2 0 -2 -3 -3 -3 -3 -3 -3 -4 -4 -5 -5 -5 -5 -5 -6 -6 -6 -6 -6 -6 -6 -5 -5
7 7 8 9 9 9 8 7 6 5 3 2 3 4 5 5 5 4 3 2 1 -0 -2 -3 -3 -4 -4 -4 -4 -4 -5 -5 -5 -5 -5 -6 -6 -7 -7 -7 -7 -7 -6 -6
8 7 7 8 8 8 8 8 7 5 4 3 2 4 5 5 5 4 4 3 2 0 -1 -2 -3 -3 -4 -4 -4 -5 -5 -5 -5 -5 -6 -6 -7 -7 -7 -7 -8 -8 -7 -7
8 7 7 7 8 8 8 8 7 5 5 4 3 4 5 6 5 4 4 3 2 1 0 -1 -2 -2 -3 -4 -4 -5 -5 -5 -5 -6 -6 -7 -7 -7 -8 -8 -8 -8 -8 -8
8 7 6 6 6 7 8 8 7 6 5 5 4 5 6 6 6 5 4 4 3 2 1 -0 -1 -1 -2 -3 -4 -4 -5 -5 -5 -6 -6 -7 -7 -8 -8 -8 -8 -8 -8 -8
7 7 6 5 5 7 7 7 7 7 6 6 5 6 7 7 6 6 6 5 4 3 2 1 0 -1 -2 -3 -4 -5 -5 -5 -5 -5 -6 -6 -7 -8 -9 -9 -9 -8 -8 -9
7 7 6 6 6 7 7 7 7 7 7 7 7 7 7 8 7 7 7 6 5 4 3 2 1 -0 -1 -3 -4 -5 -5 -5 -5 -5 -6 -7 -8 -8 -9 -9 -9 -9 -9 -9
8 7 7 6 6 7 7 8 8 8 8 7 7 7 8 8 8 7 7 7 6 5 5 4 3 1 -1 -2 -3 -4 -5 -5 -5 -5 -6 -7 -8 -8 -9 -9 -9 -9 -9 -9
8 8 7 6 6 6 6 7 8 8 8 8 7 8 8 8 8 8 7 7 6 6 5 5 4 3 2 0 -1 -3 -4 -4 -5 -6 -6 -7 -8 -8 -9 -9 -9 -9 -9 -9
9 8 7 6 5 5 6 7 7 7 8 8 8 8 8 8 8 8 7 7 7 6 6 5 5 5 4 2 1 -1 -3 -4 -5 -6 -7 -7 -8 -8 -8 -9 -9 -9 -9 -9
9 8 8 7 5 5 6 7 7 7 7 7 7 7 7 7 8 8 7 7 7 6 6 6 6 5 5 3 2 -0 -2 -4 -5 -6 -7 -7 -8 -8 -8 -9 -9 -9 -9 -9
8 8 8 7 6 5 6 7 7 6 5 5 5 4 4 4 5 6 6 6 5 5 5 6 5 5 5 3 2 0 -2 -3 -5 -6 -6 -7 -7 -8 -8 -8 -9 -9 -9 -9
6 7 8 8 7 6 7 7 6 5 3 3 3 3 2 2 2 3 2 3 3 4 4 4 4 4 3 2 1 0 -1 -3 -4 -5 -6 -6 -7 -8 -8 -8 -8 -8 -8 -8
5 6 7 7 8 8 8 8 7 5 4 3 3 3 2 2 1 1 0 1 1 2 1 1 2 2 1 -0 -1 -1 -2 -3 -4 -5 -5 -6 -7 -7 -7 -8 -8 -8 -8 -8
5 6 6 7 8 9 10 9 9 7 6 5 5 4 3 2 1 -0 -1 -0 0 -0 -1 -1 -0 -1 -2 -3 -3 -3 -3 -4 -4 -5 -5 -6 -7 -7 -7 -8 -8 -8 -8 -8
5 5 6 8 9 10 11 10 10 9 7 6 5 5 3 2 1 -0 -1 -1 -1 -1 -1 -2 -2 -2 -3 -3 -3 -4 -4 -4 -4 -5 -6 -6 -7 -7 -8 -8 -8 -8 -8 -8
4 5 6 8 9 10 10 10 10 9 8 6 5 4 3 2 0 -1 -1 -1 -1 -1 -1 -2 -2 -2 -2 -2 -2 -3 -3 -3 -4 -4 -5 -5 -6 -6 -7 -8 -8 -8 -8 -8
4 5 6 7 8 9 9 9 9 9 8 6 5 4 2 1 -0 -1 -1 -1 -1 -1 -1 -2 -2 -2 -2 -1 -2 -2 -2 -2 -3 -3 -3 -3 -4 -5 -6 -7 -7 -7 -7 -7